Starlink 2329

operational
NORAD ID: 47873 Int'l Des: 2021-021 Owner: SPXS Country: US Constellation: starlink
LEOCIRCULARSTARLINK_TYPE

Über Starlink 2329

Beschreibung wird geladen...

Live-Position

3D-Globus wird geladen...

Nächste Überflüge

Höhenverlauf

Altitude vs Time

uPlot chart will show altitude changes over time

Zweizeiliger Elementsatz

1 47873U 21021P 25304.64039939 .00000339 00000-0 41622-4 0 9996
2 47873 53.0542 120.9417 0001207 87.0656 273.0471 15.06400766256873
Epoch: 31. Okt. 2025 • Age: 6 hours

Aktueller Status

Höhe 551.4 km
Geschwindigkeit 7.59 km/s
Subsatellitenpunkt -14.82°S, 103.06°E
Startdatum 14. März 2021
Alter 4.6 years
Typ internet

Technische Details

Klassifizierung Payload
Masse 260.00 kg
Trockenmasse 248.00 kg
Gesamtmasse 260.00 kg
Länge 0.20 m
Durchmesser 2.80 m
Spannweite 9.00 m
Form Box + pan
Hersteller SPXS
Bus-Typ Starlink
Phasenstatus In Orbit
Besitzer/Staat SPXS/US

Große Konstellationen

Loading constellations...